Hourly Data Report for October 14, 2016

All times are specified in Local Standard Time (LST). Add 1 hour to adjust for Daylight Saving Time where and when it is observed.

RESOLUTE BAY A
NUNAVUT

74°43'01.000" N
94°58'10.000" W
67.70 m
2403498
71924
YRB

Download Data

Hourly Data (October 2016)
Hourly Data Report for October 14, 2016
Temp Definition
°C
Dew Point Temp Definition
°C
Rel Hum Definition
%
Wind Dir Definition
10's deg

Wind Spd Definition
km/h
Visibility Definition
km
Stn Press Definition
kPa
Hmdx Definition


Wind Chill Definition


Weather Definition


TIME
00:00 Legend Double Dagger -10.4 -11.9 89 12 10 6.4 100.17   -16 Snow
01:00 Legend Double Dagger -9.8 -11.3 89 12 12 4.8 100.17   -16 Snow
02:00 Legend Double Dagger -9.9 -11.5 88 12 19 4.8 100.16   -18 Snow
03:00 Legend Double Dagger -10.7 -12.8 85 12 25 16.1 100.15   -20 Snow
04:00 Legend Double Dagger -9.4 -11.6 84 12 22 24.1 100.14   -17 LegendNANA
05:00 Legend Double Dagger -9.3 -11.2 86 13 23 24.1 100.13   -18 LegendNANA
06:00 Legend Double Dagger -9.1 -11.0 86 12 21 24.1 100.13   -17 Snow
07:00 Legend Double Dagger -9.1 -11.2 85 12 24 24.1 100.11   -17 Snow
08:00 Legend Double Dagger -9.6 -11.4 87 10 37 9.7 100.10   -20 Snow,Blowing Snow
09:00 Legend Double Dagger -9.6 -11.4 87 11 35 14.5 100.11   -20 Snow,Blowing Snow
10:00 Legend Double Dagger -9.6 -11.5 86 10 37 16.1 100.11   -20 Snow,Blowing Snow
11:00 Legend Double Dagger -9.7 -11.6 86 10 37 24.1 100.11   -20 Snow,Blowing Snow
12:00 Legend Double Dagger -9.6 -11.5 86 11 35 24.1 100.11   -20 Snow,Blowing Snow
13:00 Legend Double Dagger -9.7 -11.9 84 10 29 24.1 100.12   -19 Snow
14:00 Legend Double Dagger -11.0 -13.2 84 9 29 24.1 100.12   -21 Snow
15:00 Legend Double Dagger -12.4 -14.7 83 8 30 24.1 100.11   -23 Snow
16:00 Legend Double Dagger -12.7 -15.2 82 7 27 24.1 100.11   -23 Snow
17:00 Legend Double Dagger -11.6 -13.8 84 7 24 6.4 100.10   -21 Snow
18:00 Legend Double Dagger -11.2 -13.5 83 8 21 9.7 100.09   -20 Snow
19:00 Legend Double Dagger -10.1 -12.6 82 10 17 9.7 100.07   -17 Snow
20:00 Legend Double Dagger -9.9 -12.6 81 10 16 16.1 100.05   -17 Snow
21:00 Legend Double Dagger -10.7 -13.4 81 7 17 16.1 100.02   -18 Snow
22:00 Legend Double Dagger -10.4 -13.2 80 12 19 4.8 100.02   -18 Snow
23:00 Legend Double Dagger -11.4 -14.4 79 11 13 24.1 100.01   -18 Snow

Notes on Data Quality.

Legend

  • E = Estimated
  • M = Missing
  • NA = Not Available
  • ‡ = Partner data that is not subject to review by the National Climate Archives
Date modified: